"Pseudo-MPEC" for P11gPAr

Created 2021 Jun 11 11:07:17 UT using Find_Orb

Click here for an explanation of pseudo-MPECs

 
 Astrometry: 
     P11gPAr  C2021 06 08lHM^b?K?;kQ$AstrometryBbUjiwcR@YRtR(bmredacted;y)9HWF51
     P11gPAr  C2021 06 08RdPW]EHh#kPX5sUy%vX1P,2ne2R$4/0clickx9B6^j$a5/?K\OJbF51
     P11gPAr  C2021 06 08%\s/ikB7V.i[BREtkg0)2ijGRdL4mPvrgJ'V;#GL1kaSC,(iN8r`F51
     P11gPAr  C2021 06 08[=a3[hHNx+[;r_=DJ.+X+k`N?R!Y4rA!S/#['V[g2\^Uy(ag8G3xF51
     P11gPAr  C2021 06 08uR*PfrH-tUpQ6QaKtBUXQT;1p\I=oG8RihJkOxGy*7PkcIe+$x62F51
     P11gPAr  C2021 06 089H(uqEks8mK[[OLd(Mc2em#(CgtA#-ZKiUC5MGAb\J4FR/'#B/seF51
     P11gPAr |C2021 06 09vH`yU@%DOH3Pd:w_Z/kZb-DZh!QtA'B[ZQ!_P+-=5KXf04t%[6f%807
     P11gPAr |C2021 06 09p.M_THfQ*!\+`2jH*%sbl^vFXV'nB`d+@kju:1LD2b)rOttYSHAy807
     P11gPAr |C2021 06 09,qhereF''f$hP/.By)\0/ZforvrexplanationcIG]CZkk!jQL6o807
     P11gPAr KC2021 06 09.22418914 55 26.66 -24 12 19.2    ~696M       VNEOCPV06
     P11gPAr KC2021 06 09.23242314 55 26.07 -24 12 14.8    ~696M 22.65GVNEOCPV06
     P11gPAr KC2021 06 09.24065814 55 25.64 -24 12 12.1    ~696M 22.15GVNEOCPV06
     P11gPAr KC2021 06 09.24889514 55 25.23 -24 12 09.0    ~696M 22.61GVNEOCPV06
     P11gPAr ^C2021 06 09.26163314 55 25.003-24 12 03.58   ~69Bb 22.11GVNEOCP568
     P11gPAr ^C2021 06 09.26261214 55 24.955-24 12 03.31   ~69Bb 22.15GVNEOCP568
     P11gPAr ^C2021 06 09.26359014 55 24.910-24 12 02.97   ~69Bb 22.13GVNEOCP568

Station data:
(568) Mauna Kea  (N19.826116 W155.472200)  US/Hawaii.
(807) Cerro Tololo Observatory, La Serena  (S30.169136 W70.805900)  Chile.
(F51) Pan-STARRS 1, Haleakala  (N20.707235 W156.255910)  US/Hawaii.
   Observers N. Primak, A. Schultz, S. Watters, J. Thiel, T. Goggia. Measurer
   PS1 Science Consortium. 1.8-m Ritchey-Chrétien + CCD.
(V06) Catalina Sky Survey-Kuiper  (N32.416847 W110.732550)  US/Arizona.
   Observers T. A. Pruyne, B. M. Africano, E. J. Christensen, G. A. Farneth,
   D. C. Fuls, A. R. Gibbs, A. D. Grauer, H. Gröller, J. A. Johnson, R. A.
   Kowalski, S. M. Larson, G. J. Leonard, D. Rankin, R. L. Seaman, F. C.
   Shelly. 1.55-m reflector + CCD.

Orbital elements:  P11gPAr
   Perihelion 2021 Nov 10.897806 +/- 308.937 TT = 21:32:50 (JD 2459529.397806)
Epoch 2021 Jun  9.0 TT = JDT 2459374.5   Earth MOID: 0.5655   AutoNEOCP
M 314.88702516 +/- 62.743556        (J2000 ecliptic)
n   0.29124347 +/- 0.0648351        Peri.    2.79443 +/- 46.527226
a   2.25405884 +/- 0.334518         Node   317.22236 +/- 13.925262
e   0.2995373 +/- 0.132267          Incl.    3.77965 +/- 1.1252157
P   3.38                   H 20.3   G  0.15   U 11.0  SR
q 1.57888406 +/- 0.163795    Q 2.92923363 +/- 0.773872
From 16 observations 2021 June 8-9 (23.3 hr); mean residual 0".73
Residuals in arcseconds: 
210608 F51  .77-  .05+    210609 807  .14-  .81-    210609 V06  .13-  .81+    
210608 F51  .36-  .06+    210609 807  .12-  .66-    210609 568  .89-  .40+    
210608 F51  .50-  .14+    210609 807  .11-  .97-    210609 568  .89-  .35+    
210608 F51  .67+  .11+    210609 V06  2.8+  1.0-    210609 568  .84-  .37+    
210608 F51  .56+  .15+    210609 V06  .28+  .58+    
210608 F51  .52+  .02-    210609 V06  .06-  .50+    

Ephemerides (geocentric):
Date (UTC) HH   RA              Dec         delta   r     elong  mag " sig PA
---- -- -- --  -------------   -----------  ------ ------ -----  --- ---- ---
2021 06 11 11  14 53 49.720   -23 59 49.43  .97445 1.9076 146.9 22.5 17.1   7
2021 06 11 12  14 53 48.021   -23 59 35.76  .97453 1.9075 146.9 22.5 17.7   7
2021 06 11 13  14 53 46.326   -23 59 22.09  .97461 1.9073 146.8 22.5 18.2   7
2021 06 11 14  14 53 44.635   -23 59 08.43  .97469 1.9072 146.8 22.5 18.8   7
2021 06 11 15  14 53 42.948   -23 58 54.78  .97477 1.9070 146.7 22.5 19.4   7
2021 06 11 16  14 53 41.265   -23 58 41.13  .97485 1.9069 146.7 22.5 20.0   7
2021 06 11 17  14 53 39.586   -23 58 27.49  .97493 1.9068 146.7 22.5 20.7   7
2021 06 11 18  14 53 37.911   -23 58 13.85  .97501 1.9066 146.6 22.5 21.3   7
2021 06 11 19  14 53 36.240   -23 58 00.22  .97509 1.9065 146.6 22.5 21.9   7
2021 06 11 20  14 53 34.573   -23 57 46.60  .97518 1.9063 146.5 22.5 22.6   7
2021 06 11 21  14 53 32.910   -23 57 32.98  .97526 1.9062 146.5 22.5 23.2   7
2021 06 11 22  14 53 31.251   -23 57 19.37  .97534 1.9060 146.4 22.5 23.9   8
2021 06 11 23  14 53 29.596   -23 57 05.77  .97542 1.9059 146.4 22.5 24.6   8
2021 06 12 00  14 53 27.945   -23 56 52.17  .97551 1.9057 146.3 22.5 25.3   8
2021 06 12 01  14 53 26.298   -23 56 38.58  .97559 1.9056 146.3 22.5 25.9   8
2021 06 12 02  14 53 24.655   -23 56 25.00  .97567 1.9054 146.2 22.5 26.7   8
2021 06 12 03  14 53 23.016   -23 56 11.42  .97576 1.9053 146.2 22.5 27.4   8
2021 06 12 04  14 53 21.381   -23 55 57.85  .97584 1.9052 146.2 22.5 28.1   8
2021 06 12 05  14 53 19.750   -23 55 44.29  .97593 1.9050 146.1 22.5 28.8   8
2021 06 12 06  14 53 18.123   -23 55 30.73  .97601 1.9049 146.1 22.5 29.6   8
2021 06 12 07  14 53 16.500   -23 55 17.18  .97610 1.9047 146.0 22.5 30.3   8
2021 06 12 08  14 53 14.881   -23 55 03.64  .97618 1.9046 146.0 22.5 31.1   8
2021 06 12 09  14 53 13.266   -23 54 50.11  .97627 1.9044 145.9 22.5 31.8   8
2021 06 12 10  14 53 11.655   -23 54 36.58  .97636 1.9043 145.9 22.5 32.6   8
2021 06 12 11  14 53 10.048   -23 54 23.06  .97644 1.9041 145.8 22.5 33.4   8
2021 06 12 12  14 53 08.445   -23 54 09.55  .97653 1.9040 145.8 22.5 34.2   8
2021 06 12 13  14 53 06.846   -23 53 56.04  .97662 1.9039 145.7 22.5 35.0   8
2021 06 12 14  14 53 05.252   -23 53 42.54  .97670 1.9037 145.7 22.5 35.8   8
2021 06 12 15  14 53 03.661   -23 53 29.05  .97679 1.9036 145.7 22.5 36.6   8
2021 06 12 16  14 53 02.074   -23 53 15.56  .97688 1.9034 145.6 22.5 37.5   8
2021 06 12 17  14 53 00.492   -23 53 02.09  .97697 1.9033 145.6 22.5 38.3   8
2021 06 12 18  14 52 58.913   -23 52 48.62  .97706 1.9031 145.5 22.5 39.2   8
2021 06 12 19  14 52 57.339   -23 52 35.16  .97715 1.9030 145.5 22.5 40.0   8
2021 06 12 20  14 52 55.769   -23 52 21.70  .97723 1.9028 145.4 22.5 40.9   8
2021 06 12 21  14 52 54.202   -23 52 08.25  .97732 1.9027 145.4 22.5 41.8   8
2021 06 12 22  14 52 52.640   -23 51 54.81  .97741 1.9026 145.3 22.5 42.7   8
2021 06 12 23  14 52 51.082   -23 51 41.38  .97750 1.9024 145.3 22.5 43.6   8
2021 06 13 00  14 52 49.528   -23 51 27.96  .97759 1.9023 145.2 22.5 44.5   8
2021 06 13 01  14 52 47.978   -23 51 14.54  .97768 1.9021 145.2 22.5 45.4   8
2021 06 13 02  14 52 46.432   -23 51 01.13  .97778 1.9020 145.2 22.5 46.3   8
2021 06 13 03  14 52 44.890   -23 50 47.73  .97787 1.9018 145.1 22.5 47.2   8
2021 06 13 04  14 52 43.353   -23 50 34.33  .97796 1.9017 145.1 22.5 48.2   8
2021 06 13 05  14 52 41.819   -23 50 20.95  .97805 1.9015 145.0 22.5 49.1   8
2021 06 13 06  14 52 40.290   -23 50 07.57  .97814 1.9014 145.0 22.5 50.1   8
2021 06 13 07  14 52 38.764   -23 49 54.20  .97823 1.9013 144.9 22.5 51.1   8
2021 06 13 08  14 52 37.243   -23 49 40.84  .97833 1.9011 144.9 22.5 52.1   8
2021 06 13 09  14 52 35.726   -23 49 27.48  .97842 1.9010 144.8 22.6 53.1   8
2021 06 13 10  14 52 34.213   -23 49 14.13  .97851 1.9008 144.8 22.6 54.1   8